owner,sensor,date,latitude,longitude,sea_surface_height_above_sea_level,qcFlag 
COMPS,ioos:station:USF.COMPS:SHP:1,2014-03-01T00:00:00Z,30.0600,-84.2910,-0.427,1111122 
COMPS,ioos:station:USF.COMPS:SHP:1,2014-03-01T00:06:00Z,30.0600,-84.2910,-0.439,1111122 
COMPS,ioos:station:USF.COMPS:SHP:1,2014-03-01T00:12:00Z,30.0600,-84.2910,-0.449,1111122 
COMPS,ioos:station:USF.COMPS:SHP:1,2014-03-01T00:18:00Z,30.0600,-84.2910,-0.459,1111122 
COMPS,ioos:station:USF.COMPS:SHP:1,2014-03-01T00:24:00Z,30.0600,-84.2910,-0.475,1111122 
COMPS,ioos:station:USF.COMPS:SHP:1,2014-03-01T00:30:00Z,30.0600,-84.2910,-0.491,1111122 
COMPS,ioos:station:USF.COMPS:SHP:1,2014-03-01T00:36:00Z,30.0600,-84.2910,-0.502,1111122 
COMPS,ioos:station:USF.COMPS:SHP:1,2014-03-01T00:42:00Z,30.0600,-84.2910,-0.509,1111122 
COMPS,ioos:station:USF.COMPS:SHP:1,2014-03-01T00:48:00Z,30.0600,-84.2910,-0.516,1111122 
COMPS,ioos:station:USF.COMPS:SHP:1,2014-03-01T00:54:00Z,30.0600,-84.2910,-0.521,1111122 
COMPS,ioos:station:USF.COMPS:SHP:1,2014-03-01T01:00:00Z,30.0600,-84.2910,-0.521,1111122 
COMPS,ioos:station:USF.COMPS:SHP:1,2014-03-01T01:06:00Z,30.0600,-84.2910,-0.518,1111122 
COMPS,ioos:station:USF.COMPS:SHP:1,2014-03-01T01:12:00Z,30.0600,-84.2910,-0.516,1111122 
COMPS,ioos:station:USF.COMPS:SHP:1,2014-03-01T01:18:00Z,30.0600,-84.2910,-0.519,1111122 
COMPS,ioos:station:USF.COMPS:SHP:1,2014-03-01T01:24:00Z,30.0600,-84.2910,-0.523,1111122 
COMPS,ioos:station:USF.COMPS:SHP:1,2014-03-01T01:30:00Z,30.0600,-84.2910,-0.515,1111122 
COMPS,ioos:station:USF.COMPS:SHP:1,2014-03-01T01:36:00Z,30.0600,-84.2910,-0.504,1111122 
COMPS,ioos:station:USF.COMPS:SHP:1,2014-03-01T01:42:00Z,30.0600,-84.2910,-0.497,1111122 
COMPS,ioos:station:USF.COMPS:SHP:1,2014-03-01T01:48:00Z,30.0600,-84.2910,-0.49,1111122 
COMPS,ioos:station:USF.COMPS:SHP:1,2014-03-01T01:54:00Z,30.0600,-84.2910,-0.477,1111122 
COMPS,ioos:station:USF.COMPS:SHP:1,2014-03-01T02:00:00Z,30.0600,-84.2910,-0.461,1111122 
COMPS,ioos:station:USF.COMPS:SHP:1,2014-03-01T02:06:00Z,30.0600,-84.2910,-0.447,1111122 
COMPS,ioos:station:USF.COMPS:SHP:1,2014-03-01T02:12:00Z,30.0600,-84.2910,-0.431,1111122 
COMPS,ioos:station:USF.COMPS:SHP:1,2014-03-01T02:18:00Z,30.0600,-84.2910,-0.417,1111122 
COMPS,ioos:station:USF.COMPS:SHP:1,2014-03-01T02:24:00Z,30.0600,-84.2910,-0.402,1111122 
COMPS,ioos:station:USF.COMPS:SHP:1,2014-03-01T02:30:00Z,30.0600,-84.2910,-0.381,1111122 
COMPS,ioos:station:USF.COMPS:SHP:1,2014-03-01T02:36:00Z,30.0600,-84.2910,-0.359,1111122 
COMPS,ioos:station:USF.COMPS:SHP:1,2014-03-01T02:42:00Z,30.0600,-84.2910,-0.34,1111122 
COMPS,ioos:station:USF.COMPS:SHP:1,2014-03-01T02:48:00Z,30.0600,-84.2910,-0.319,1111122 
COMPS,ioos:station:USF.COMPS:SHP:1,2014-03-01T02:54:00Z,30.0600,-84.2910,-0.296,1111122 
COMPS,ioos:station:USF.COMPS:SHP:1,2014-03-01T03:00:00Z,30.0600,-84.2910,-0.268,1111122 
COMPS,ioos:station:USF.COMPS:SHP:1,2014-03-01T03:06:00Z,30.0600,-84.2910,-0.241,1111122 
COMPS,ioos:station:USF.COMPS:SHP:1,2014-03-01T03:12:00Z,30.0600,-84.2910,-0.219,1111122 
COMPS,ioos:station:USF.COMPS:SHP:1,2014-03-01T03:18:00Z,30.0600,-84.2910,-0.196,1111122 
COMPS,ioos:station:USF.COMPS:SHP:1,2014-03-01T03:24:00Z,30.0600,-84.2910,-0.174,1111122 
COMPS,ioos:station:USF.COMPS:SHP:1,2014-03-01T03:30:00Z,30.0600,-84.2910,-0.15,1111122 
COMPS,ioos:station:USF.COMPS:SHP:1,2014-03-01T03:36:00Z,30.0600,-84.2910,-0.128,1111122 
COMPS,ioos:station:USF.COMPS:SHP:1,2014-03-01T03:42:00Z,30.0600,-84.2910,-0.104,1111122 
COMPS,ioos:station:USF.COMPS:SHP:1,2014-03-01T03:48:00Z,30.0600,-84.2910,-0.081,1111122 
COMPS,ioos:station:USF.COMPS:SHP:1,2014-03-01T03:54:00Z,30.0600,-84.2910,-0.053,1111122 
COMPS,ioos:station:USF.COMPS:SHP:1,2014-03-01T04:00:00Z,30.0600,-84.2910,-0.025,1111122 
COMPS,ioos:station:USF.COMPS:SHP:1,2014-03-01T04:06:00Z,30.0600,-84.2910,-0.002,1111122 
COMPS,ioos:station:USF.COMPS:SHP:1,2014-03-01T04:12:00Z,30.0600,-84.2910,0.019,1111122 
COMPS,ioos:station:USF.COMPS:SHP:1,2014-03-01T04:18:00Z,30.0600,-84.2910,0.045,1111122 
COMPS,ioos:station:USF.COMPS:SHP:1,2014-03-01T04:24:00Z,30.0600,-84.2910,0.076,1111122 
COMPS,ioos:station:USF.COMPS:SHP:1,2014-03-01T04:30:00Z,30.0600,-84.2910,0.107,1111122 
COMPS,ioos:station:USF.COMPS:SHP:1,2014-03-01T04:36:00Z,30.0600,-84.2910,0.142,1111122 
COMPS,ioos:station:USF.COMPS:SHP:1,2014-03-01T04:42:00Z,30.0600,-84.2910,0.17,1111122 
COMPS,ioos:station:USF.COMPS:SHP:1,2014-03-01T04:48:00Z,30.0600,-84.2910,0.185,1111122 
COMPS,ioos:station:USF.COMPS:SHP:1,2014-03-01T04:54:00Z,30.0600,-84.2910,0.216,1111122 
COMPS,ioos:station:USF.COMPS:SHP:1,2014-03-01T05:00:00Z,30.0600,-84.2910,0.256,1111122 
COMPS,ioos:station:USF.COMPS:SHP:1,2014-03-01T05:06:00Z,30.0600,-84.2910,0.289,1111122 
COMPS,ioos:station:USF.COMPS:SHP:1,2014-03-01T05:12:00Z,30.0600,-84.2910,0.312,1111122 
COMPS,ioos:station:USF.COMPS:SHP:1,2014-03-01T05:18:00Z,30.0600,-84.2910,0.338,1111122 
COMPS,ioos:station:USF.COMPS:SHP:1,2014-03-01T05:24:00Z,30.0600,-84.2910,0.362,1111122 
COMPS,ioos:station:USF.COMPS:SHP:1,2014-03-01T05:30:00Z,30.0600,-84.2910,0.384,1111122 
COMPS,ioos:station:USF.COMPS:SHP:1,2014-03-01T05:36:00Z,30.0600,-84.2910,0.408,1111122 
COMPS,ioos:station:USF.COMPS:SHP:1,2014-03-01T05:42:00Z,30.0600,-84.2910,0.43,1111122 
COMPS,ioos:station:USF.COMPS:SHP:1,2014-03-01T05:48:00Z,30.0600,-84.2910,0.452,1111122 
COMPS,ioos:station:USF.COMPS:SHP:1,2014-03-01T05:54:00Z,30.0600,-84.2910,0.472,1111122 
COMPS,ioos:station:USF.COMPS:SHP:1,2014-03-01T06:00:00Z,30.0600,-84.2910,0.491,1111122 
COMPS,ioos:station:USF.COMPS:SHP:1,2014-03-01T06:06:00Z,30.0600,-84.2910,0.512,1111122 
COMPS,ioos:station:USF.COMPS:SHP:1,2014-03-01T06:12:00Z,30.0600,-84.2910,0.535,1111122 
COMPS,ioos:station:USF.COMPS:SHP:1,2014-03-01T06:18:00Z,30.0600,-84.2910,0.546,1111122 
COMPS,ioos:station:USF.COMPS:SHP:1,2014-03-01T06:24:00Z,30.0600,-84.2910,0.56,1111122 
COMPS,ioos:station:USF.COMPS:SHP:1,2014-03-01T06:30:00Z,30.0600,-84.2910,0.591,1111122 
COMPS,ioos:station:USF.COMPS:SHP:1,2014-03-01T06:36:00Z,30.0600,-84.2910,0.593,1111122 
COMPS,ioos:station:USF.COMPS:SHP:1,2014-03-01T06:42:00Z,30.0600,-84.2910,0.587,1111122 
COMPS,ioos:station:USF.COMPS:SHP:1,2014-03-01T06:48:00Z,30.0600,-84.2910,0.597,1111122 
COMPS,ioos:station:USF.COMPS:SHP:1,2014-03-01T06:54:00Z,30.0600,-84.2910,0.602,1111122 
COMPS,ioos:station:USF.COMPS:SHP:1,2014-03-01T07:00:00Z,30.0600,-84.2910,0.602,1111122 
COMPS,ioos:station:USF.COMPS:SHP:1,2014-03-01T07:06:00Z,30.0600,-84.2910,0.61,1111122 
COMPS,ioos:station:USF.COMPS:SHP:1,2014-03-01T07:12:00Z,30.0600,-84.2910,0.621,1111122 
COMPS,ioos:station:USF.COMPS:SHP:1,2014-03-01T07:18:00Z,30.0600,-84.2910,0.617,1111122 
COMPS,ioos:station:USF.COMPS:SHP:1,2014-03-01T07:24:00Z,30.0600,-84.2910,0.625,1111122 
COMPS,ioos:station:USF.COMPS:SHP:1,2014-03-01T07:30:00Z,30.0600,-84.2910,0.631,1111122 
COMPS,ioos:station:USF.COMPS:SHP:1,2014-03-01T07:36:00Z,30.0600,-84.2910,0.625,1111122 
COMPS,ioos:station:USF.COMPS:SHP:1,2014-03-01T07:42:00Z,30.0600,-84.2910,0.606,1111122 
COMPS,ioos:station:USF.COMPS:SHP:1,2014-03-01T07:48:00Z,30.0600,-84.2910,0.597,1111122 
COMPS,ioos:station:USF.COMPS:SHP:1,2014-03-01T07:54:00Z,30.0600,-84.2910,0.598,1111122 
COMPS,ioos:station:USF.COMPS:SHP:1,2014-03-01T08:00:00Z,30.0600,-84.2910,0.584,1111122 
COMPS,ioos:station:USF.COMPS:SHP:1,2014-03-01T08:06:00Z,30.0600,-84.2910,0.575,1111122 
COMPS,ioos:station:USF.COMPS:SHP:1,2014-03-01T08:12:00Z,30.0600,-84.2910,0.556,1111122 
COMPS,ioos:station:USF.COMPS:SHP:1,2014-03-01T08:18:00Z,30.0600,-84.2910,0.533,1111122 
COMPS,ioos:station:USF.COMPS:SHP:1,2014-03-01T08:24:00Z,30.0600,-84.2910,0.514,1111122 
COMPS,ioos:station:USF.COMPS:SHP:1,2014-03-01T08:30:00Z,30.0600,-84.2910,0.483,1111122 
COMPS,ioos:station:USF.COMPS:SHP:1,2014-03-01T08:36:00Z,30.0600,-84.2910,0.461,1111122 
COMPS,ioos:station:USF.COMPS:SHP:1,2014-03-01T08:42:00Z,30.0600,-84.2910,0.43,1111122 
COMPS,ioos:station:USF.COMPS:SHP:1,2014-03-01T08:48:00Z,30.0600,-84.2910,0.396,1111122 
COMPS,ioos:station:USF.COMPS:SHP:1,2014-03-01T08:54:00Z,30.0600,-84.2910,0.377,1111122 
COMPS,ioos:station:USF.COMPS:SHP:1,2014-03-01T09:00:00Z,30.0600,-84.2910,0.351,1111122 
COMPS,ioos:station:USF.COMPS:SHP:1,2014-03-01T09:06:00Z,30.0600,-84.2910,0.322,1111122 
COMPS,ioos:station:USF.COMPS:SHP:1,2014-03-01T09:12:00Z,30.0600,-84.2910,0.28,1111122 
COMPS,ioos:station:USF.COMPS:SHP:1,2014-03-01T09:18:00Z,30.0600,-84.2910,0.242,1111122 
COMPS,ioos:station:USF.COMPS:SHP:1,2014-03-01T09:24:00Z,30.0600,-84.2910,0.207,1111122 
COMPS,ioos:station:USF.COMPS:SHP:1,2014-03-01T09:30:00Z,30.0600,-84.2910,0.173,1111122 
COMPS,ioos:station:USF.COMPS:SHP:1,2014-03-01T09:36:00Z,30.0600,-84.2910,0.141,1111122 
COMPS,ioos:station:USF.COMPS:SHP:1,2014-03-01T09:42:00Z,30.0600,-84.2910,0.118,1111122 
COMPS,ioos:station:USF.COMPS:SHP:1,2014-03-01T09:48:00Z,30.0600,-84.2910,0.095,1111122 
COMPS,ioos:station:USF.COMPS:SHP:1,2014-03-01T09:54:00Z,30.0600,-84.2910,0.062,1111122 
COMPS,ioos:station:USF.COMPS:SHP:1,2014-03-01T10:00:00Z,30.0600,-84.2910,0.029,1111122 
COMPS,ioos:station:USF.COMPS:SHP:1,2014-03-01T10:06:00Z,30.0600,-84.2910,-0.008,1111122 
COMPS,ioos:station:USF.COMPS:SHP:1,2014-03-01T10:12:00Z,30.0600,-84.2910,-0.043,1111122 
COMPS,ioos:station:USF.COMPS:SHP:1,2014-03-01T10:18:00Z,30.0600,-84.2910,-0.08,1111122 
COMPS,ioos:station:USF.COMPS:SHP:1,2014-03-01T10:24:00Z,30.0600,-84.2910,-0.109,1111122 
COMPS,ioos:station:USF.COMPS:SHP:1,2014-03-01T10:30:00Z,30.0600,-84.2910,-0.14,1111122 
COMPS,ioos:station:USF.COMPS:SHP:1,2014-03-01T10:36:00Z,30.0600,-84.2910,-0.174,1111122 
COMPS,ioos:station:USF.COMPS:SHP:1,2014-03-01T10:42:00Z,30.0600,-84.2910,-0.203,1111122 
COMPS,ioos:station:USF.COMPS:SHP:1,2014-03-01T10:48:00Z,30.0600,-84.2910,-0.23,1111122 
COMPS,ioos:station:USF.COMPS:SHP:1,2014-03-01T10:54:00Z,30.0600,-84.2910,-0.26,1111122 
COMPS,ioos:station:USF.COMPS:SHP:1,2014-03-01T11:00:00Z,30.0600,-84.2910,-0.288,1111122 
COMPS,ioos:station:USF.COMPS:SHP:1,2014-03-01T11:06:00Z,30.0600,-84.2910,-0.308,1111122 
COMPS,ioos:station:USF.COMPS:SHP:1,2014-03-01T11:12:00Z,30.0600,-84.2910,-0.329,1111122 
COMPS,ioos:station:USF.COMPS:SHP:1,2014-03-01T11:18:00Z,30.0600,-84.2910,-0.355,1111122 
COMPS,ioos:station:USF.COMPS:SHP:1,2014-03-01T11:24:00Z,30.0600,-84.2910,-0.383,1111122 
COMPS,ioos:station:USF.COMPS:SHP:1,2014-03-01T11:30:00Z,30.0600,-84.2910,-0.403,1111122 
COMPS,ioos:station:USF.COMPS:SHP:1,2014-03-01T11:36:00Z,30.0600,-84.2910,-0.424,1111122 
COMPS,ioos:station:USF.COMPS:SHP:1,2014-03-01T11:42:00Z,30.0600,-84.2910,-0.448,1111122 
COMPS,ioos:station:USF.COMPS:SHP:1,2014-03-01T11:48:00Z,30.0600,-84.2910,-0.47,1111122 
COMPS,ioos:station:USF.COMPS:SHP:1,2014-03-01T11:54:00Z,30.0600,-84.2910,-0.491,1111122 
COMPS,ioos:station:USF.COMPS:SHP:1,2014-03-01T12:00:00Z,30.0600,-84.2910,-0.514,1111122 
COMPS,ioos:station:USF.COMPS:SHP:1,2014-03-01T12:06:00Z,30.0600,-84.2910,-0.539,1111122 
COMPS,ioos:station:USF.COMPS:SHP:1,2014-03-01T12:12:00Z,30.0600,-84.2910,-0.562,1111122 
COMPS,ioos:station:USF.COMPS:SHP:1,2014-03-01T12:18:00Z,30.0600,-84.2910,-0.583,1111122 
COMPS,ioos:station:USF.COMPS:SHP:1,2014-03-01T12:24:00Z,30.0600,-84.2910,-0.604,1111122 
COMPS,ioos:station:USF.COMPS:SHP:1,2014-03-01T12:30:00Z,30.0600,-84.2910,-0.625,1111122 
COMPS,ioos:station:USF.COMPS:SHP:1,2014-03-01T12:36:00Z,30.0600,-84.2910,-0.646,1111122 
COMPS,ioos:station:USF.COMPS:SHP:1,2014-03-01T12:42:00Z,30.0600,-84.2910,-0.628,1111122 
COMPS,ioos:station:USF.COMPS:SHP:1,2014-03-01T12:48:00Z,30.0600,-84.2910,-0.628,1111122 
COMPS,ioos:station:USF.COMPS:SHP:1,2014-03-01T12:54:00Z,30.0600,-84.2910,-0.628,1111122 
COMPS,ioos:station:USF.COMPS:SHP:1,2014-03-01T13:00:00Z,30.0600,-84.2910,-0.628,1111122 
COMPS,ioos:station:USF.COMPS:SHP:1,2014-03-01T13:06:00Z,30.0600,-84.2910,-0.628,1111122 
COMPS,ioos:station:USF.COMPS:SHP:1,2014-03-01T13:12:00Z,30.0600,-84.2910,-0.628,1111122 
COMPS,ioos:station:USF.COMPS:SHP:1,2014-03-01T13:18:00Z,30.0600,-84.2910,-0.628,1111122 
COMPS,ioos:station:USF.COMPS:SHP:1,2014-03-01T13:24:00Z,30.0600,-84.2910,-0.628,1111122 
COMPS,ioos:station:USF.COMPS:SHP:1,2014-03-01T13:30:00Z,30.0600,-84.2910,-0.628,1111122 
COMPS,ioos:station:USF.COMPS:SHP:1,2014-03-01T13:36:00Z,30.0600,-84.2910,-0.628,1111122 
COMPS,ioos:station:USF.COMPS:SHP:1,2014-03-01T13:42:00Z,30.0600,-84.2910,-0.629,1111122 
COMPS,ioos:station:USF.COMPS:SHP:1,2014-03-01T13:48:00Z,30.0600,-84.2910,-0.628,1111122 
COMPS,ioos:station:USF.COMPS:SHP:1,2014-03-01T13:54:00Z,30.0600,-84.2910,-0.626,1111122 
COMPS,ioos:station:USF.COMPS:SHP:1,2014-03-01T14:00:00Z,30.0600,-84.2910,-0.627,1111122 
COMPS,ioos:station:USF.COMPS:SHP:1,2014-03-01T14:06:00Z,30.0600,-84.2910,-0.627,1111122 
COMPS,ioos:station:USF.COMPS:SHP:1,2014-03-01T14:12:00Z,30.0600,-84.2910,-0.627,1111122 
COMPS,ioos:station:USF.COMPS:SHP:1,2014-03-01T14:18:00Z,30.0600,-84.2910,-0.627,1111122 
COMPS,ioos:station:USF.COMPS:SHP:1,2014-03-01T14:24:00Z,30.0600,-84.2910,-0.628,1111122 
COMPS,ioos:station:USF.COMPS:SHP:1,2014-03-01T14:30:00Z,30.0600,-84.2910,-0.629,1111122 
COMPS,ioos:station:USF.COMPS:SHP:1,2014-03-01T14:36:00Z,30.0600,-84.2910,-0.629,1111122 
COMPS,ioos:station:USF.COMPS:SHP:1,2014-03-01T14:42:00Z,30.0600,-84.2910,-0.63,1111122 
COMPS,ioos:station:USF.COMPS:SHP:1,2014-03-01T14:48:00Z,30.0600,-84.2910,-0.632,1111122 
COMPS,ioos:station:USF.COMPS:SHP:1,2014-03-01T14:54:00Z,30.0600,-84.2910,-0.634,1111122 
COMPS,ioos:station:USF.COMPS:SHP:1,2014-03-01T15:00:00Z,30.0600,-84.2910,-0.636,1111122 
COMPS,ioos:station:USF.COMPS:SHP:1,2014-03-01T15:06:00Z,30.0600,-84.2910,-0.639,1111122 
COMPS,ioos:station:USF.COMPS:SHP:1,2014-03-01T15:12:00Z,30.0600,-84.2910,-0.651,1111122 
COMPS,ioos:station:USF.COMPS:SHP:1,2014-03-01T15:18:00Z,30.0600,-84.2910,-0.635,1111122 
COMPS,ioos:station:USF.COMPS:SHP:1,2014-03-01T15:24:00Z,30.0600,-84.2910,-0.613,1111122 
COMPS,ioos:station:USF.COMPS:SHP:1,2014-03-01T15:30:00Z,30.0600,-84.2910,-0.587,1111122 
COMPS,ioos:station:USF.COMPS:SHP:1,2014-03-01T15:36:00Z,30.0600,-84.2910,-0.56,1111122 
COMPS,ioos:station:USF.COMPS:SHP:1,2014-03-01T15:42:00Z,30.0600,-84.2910,-0.537,1111122 
COMPS,ioos:station:USF.COMPS:SHP:1,2014-03-01T15:48:00Z,30.0600,-84.2910,-0.509,1111122 
COMPS,ioos:station:USF.COMPS:SHP:1,2014-03-01T15:54:00Z,30.0600,-84.2910,-0.479,1111122 
COMPS,ioos:station:USF.COMPS:SHP:1,2014-03-01T16:00:00Z,30.0600,-84.2910,-0.447,1111122 
COMPS,ioos:station:USF.COMPS:SHP:1,2014-03-01T16:06:00Z,30.0600,-84.2910,-0.411,1111122 
COMPS,ioos:station:USF.COMPS:SHP:1,2014-03-01T16:12:00Z,30.0600,-84.2910,-0.372,1111122 
COMPS,ioos:station:USF.COMPS:SHP:1,2014-03-01T16:18:00Z,30.0600,-84.2910,-0.334,1111122 
COMPS,ioos:station:USF.COMPS:SHP:1,2014-03-01T16:24:00Z,30.0600,-84.2910,-0.292,1111122 
COMPS,ioos:station:USF.COMPS:SHP:1,2014-03-01T16:30:00Z,30.0600,-84.2910,-0.25,1111122 
COMPS,ioos:station:USF.COMPS:SHP:1,2014-03-01T16:36:00Z,30.0600,-84.2910,-0.211,1111122 
COMPS,ioos:station:USF.COMPS:SHP:1,2014-03-01T16:42:00Z,30.0600,-84.2910,-0.167,1111122 
COMPS,ioos:station:USF.COMPS:SHP:1,2014-03-01T16:48:00Z,30.0600,-84.2910,-0.121,1111122 
COMPS,ioos:station:USF.COMPS:SHP:1,2014-03-01T16:54:00Z,30.0600,-84.2910,-0.077,1111122 
COMPS,ioos:station:USF.COMPS:SHP:1,2014-03-01T17:00:00Z,30.0600,-84.2910,-0.038,1111122 
COMPS,ioos:station:USF.COMPS:SHP:1,2014-03-01T17:06:00Z,30.0600,-84.2910,-0.003,1111122 
COMPS,ioos:station:USF.COMPS:SHP:1,2014-03-01T17:12:00Z,30.0600,-84.2910,0.033,1111122 
COMPS,ioos:station:USF.COMPS:SHP:1,2014-03-01T17:18:00Z,30.0600,-84.2910,0.065,1111122 
COMPS,ioos:station:USF.COMPS:SHP:1,2014-03-01T17:24:00Z,30.0600,-84.2910,0.099,1111122 
COMPS,ioos:station:USF.COMPS:SHP:1,2014-03-01T17:30:00Z,30.0600,-84.2910,0.136,1111122 
COMPS,ioos:station:USF.COMPS:SHP:1,2014-03-01T17:36:00Z,30.0600,-84.2910,0.163,1111122 
COMPS,ioos:station:USF.COMPS:SHP:1,2014-03-01T17:42:00Z,30.0600,-84.2910,0.2,1111122 
COMPS,ioos:station:USF.COMPS:SHP:1,2014-03-01T17:48:00Z,30.0600,-84.2910,0.235,1111122 
COMPS,ioos:station:USF.COMPS:SHP:1,2014-03-01T17:54:00Z,30.0600,-84.2910,0.262,1111122 
COMPS,ioos:station:USF.COMPS:SHP:1,2014-03-01T18:00:00Z,30.0600,-84.2910,0.284,1111122 
COMPS,ioos:station:USF.COMPS:SHP:1,2014-03-01T18:06:00Z,30.0600,-84.2910,0.31,1111122 
COMPS,ioos:station:USF.COMPS:SHP:1,2014-03-01T18:12:00Z,30.0600,-84.2910,0.33,1111122 
COMPS,ioos:station:USF.COMPS:SHP:1,2014-03-01T18:18:00Z,30.0600,-84.2910,0.349,1111122 
COMPS,ioos:station:USF.COMPS:SHP:1,2014-03-01T18:24:00Z,30.0600,-84.2910,0.372,1111122 
COMPS,ioos:station:USF.COMPS:SHP:1,2014-03-01T18:30:00Z,30.0600,-84.2910,0.391,1111122 
COMPS,ioos:station:USF.COMPS:SHP:1,2014-03-01T18:36:00Z,30.0600,-84.2910,0.413,1111122 
COMPS,ioos:station:USF.COMPS:SHP:1,2014-03-01T18:42:00Z,30.0600,-84.2910,0.436,1111122 
COMPS,ioos:station:USF.COMPS:SHP:1,2014-03-01T18:48:00Z,30.0600,-84.2910,0.449,1111122 
COMPS,ioos:station:USF.COMPS:SHP:1,2014-03-01T18:54:00Z,30.0600,-84.2910,0.455,1111122 
COMPS,ioos:station:USF.COMPS:SHP:1,2014-03-01T19:00:00Z,30.0600,-84.2910,0.469,1111122 
COMPS,ioos:station:USF.COMPS:SHP:1,2014-03-01T19:06:00Z,30.0600,-84.2910,0.484,1111122 
COMPS,ioos:station:USF.COMPS:SHP:1,2014-03-01T19:12:00Z,30.0600,-84.2910,0.501,1111122 
COMPS,ioos:station:USF.COMPS:SHP:1,2014-03-01T19:18:00Z,30.0600,-84.2910,0.516,1111122 
COMPS,ioos:station:USF.COMPS:SHP:1,2014-03-01T19:24:00Z,30.0600,-84.2910,0.516,1111122 
COMPS,ioos:station:USF.COMPS:SHP:1,2014-03-01T19:30:00Z,30.0600,-84.2910,0.513,1111122 
COMPS,ioos:station:USF.COMPS:SHP:1,2014-03-01T19:36:00Z,30.0600,-84.2910,0.523,1111122 
COMPS,ioos:station:USF.COMPS:SHP:1,2014-03-01T19:42:00Z,30.0600,-84.2910,0.529,1111122 
COMPS,ioos:station:USF.COMPS:SHP:1,2014-03-01T19:48:00Z,30.0600,-84.2910,0.521,1111122 
COMPS,ioos:station:USF.COMPS:SHP:1,2014-03-01T19:54:00Z,30.0600,-84.2910,0.532,1111122 
COMPS,ioos:station:USF.COMPS:SHP:1,2014-03-01T20:00:00Z,30.0600,-84.2910,0.536,1111122 
COMPS,ioos:station:USF.COMPS:SHP:1,2014-03-01T20:06:00Z,30.0600,-84.2910,0.526,1111122 
COMPS,ioos:station:USF.COMPS:SHP:1,2014-03-01T20:12:00Z,30.0600,-84.2910,0.517,1111122 
COMPS,ioos:station:USF.COMPS:SHP:1,2014-03-01T20:18:00Z,30.0600,-84.2910,0.503,1111122 
COMPS,ioos:station:USF.COMPS:SHP:1,2014-03-01T20:24:00Z,30.0600,-84.2910,0.489,1111122 
COMPS,ioos:station:USF.COMPS:SHP:1,2014-03-01T20:30:00Z,30.0600,-84.2910,0.475,1111122 
COMPS,ioos:station:USF.COMPS:SHP:1,2014-03-01T20:36:00Z,30.0600,-84.2910,0.463,1111122 
COMPS,ioos:station:USF.COMPS:SHP:1,2014-03-01T20:42:00Z,30.0600,-84.2910,0.445,1111122 
COMPS,ioos:station:USF.COMPS:SHP:1,2014-03-01T20:48:00Z,30.0600,-84.2910,0.42,1111122 
COMPS,ioos:station:USF.COMPS:SHP:1,2014-03-01T20:54:00Z,30.0600,-84.2910,0.396,1111122 
COMPS,ioos:station:USF.COMPS:SHP:1,2014-03-01T21:00:00Z,30.0600,-84.2910,0.376,1111122 
COMPS,ioos:station:USF.COMPS:SHP:1,2014-03-01T21:06:00Z,30.0600,-84.2910,0.354,1111122 
COMPS,ioos:station:USF.COMPS:SHP:1,2014-03-01T21:12:00Z,30.0600,-84.2910,0.329,1111122 
COMPS,ioos:station:USF.COMPS:SHP:1,2014-03-01T21:18:00Z,30.0600,-84.2910,0.305,1111122 
COMPS,ioos:station:USF.COMPS:SHP:1,2014-03-01T21:24:00Z,30.0600,-84.2910,0.288,1111122 
COMPS,ioos:station:USF.COMPS:SHP:1,2014-03-01T21:30:00Z,30.0600,-84.2910,0.264,1111122 
COMPS,ioos:station:USF.COMPS:SHP:1,2014-03-01T21:36:00Z,30.0600,-84.2910,0.227,1111122 
COMPS,ioos:station:USF.COMPS:SHP:1,2014-03-01T21:42:00Z,30.0600,-84.2910,0.199,1111122 
COMPS,ioos:station:USF.COMPS:SHP:1,2014-03-01T21:48:00Z,30.0600,-84.2910,0.179,1111122 
COMPS,ioos:station:USF.COMPS:SHP:1,2014-03-01T21:54:00Z,30.0600,-84.2910,0.149,1111122 
COMPS,ioos:station:USF.COMPS:SHP:1,2014-03-01T22:00:00Z,30.0600,-84.2910,0.113,1111122 
COMPS,ioos:station:USF.COMPS:SHP:1,2014-03-01T22:06:00Z,30.0600,-84.2910,0.088,1111122 
COMPS,ioos:station:USF.COMPS:SHP:1,2014-03-01T22:12:00Z,30.0600,-84.2910,0.063,1111122 
COMPS,ioos:station:USF.COMPS:SHP:1,2014-03-01T22:18:00Z,30.0600,-84.2910,0.029,1111122 
COMPS,ioos:station:USF.COMPS:SHP:1,2014-03-01T22:24:00Z,30.0600,-84.2910,-0.002,1111122 
COMPS,ioos:station:USF.COMPS:SHP:1,2014-03-01T22:30:00Z,30.0600,-84.2910,-0.031,1111122 
COMPS,ioos:station:USF.COMPS:SHP:1,2014-03-01T22:36:00Z,30.0600,-84.2910,-0.062,1111122 
COMPS,ioos:station:USF.COMPS:SHP:1,2014-03-01T22:42:00Z,30.0600,-84.2910,-0.097,1111122 
COMPS,ioos:station:USF.COMPS:SHP:1,2014-03-01T22:48:00Z,30.0600,-84.2910,-0.128,1111122 
COMPS,ioos:station:USF.COMPS:SHP:1,2014-03-01T22:54:00Z,30.0600,-84.2910,-0.155,1111122 
COMPS,ioos:station:USF.COMPS:SHP:1,2014-03-01T23:00:00Z,30.0600,-84.2910,-0.186,1111122 
COMPS,ioos:station:USF.COMPS:SHP:1,2014-03-01T23:06:00Z,30.0600,-84.2910,-0.22,1111122 
COMPS,ioos:station:USF.COMPS:SHP:1,2014-03-01T23:12:00Z,30.0600,-84.2910,-0.249,1111122 
COMPS,ioos:station:USF.COMPS:SHP:1,2014-03-01T23:18:00Z,30.0600,-84.2910,-0.273,1111122 
COMPS,ioos:station:USF.COMPS:SHP:1,2014-03-01T23:24:00Z,30.0600,-84.2910,-0.3,1111122 
COMPS,ioos:station:USF.COMPS:SHP:1,2014-03-01T23:30:00Z,30.0600,-84.2910,-0.328,1111122 
COMPS,ioos:station:USF.COMPS:SHP:1,2014-03-01T23:36:00Z,30.0600,-84.2910,-0.351,1111122 
COMPS,ioos:station:USF.COMPS:SHP:1,2014-03-01T23:42:00Z,30.0600,-84.2910,-0.371,1111122 
COMPS,ioos:station:USF.COMPS:SHP:1,2014-03-01T23:48:00Z,30.0600,-84.2910,-0.393,1111122 
COMPS,ioos:station:USF.COMPS:SHP:1,2014-03-01T23:54:00Z,30.0600,-84.2910,-0.415,1111122 
COMPS,ioos:station:USF.COMPS:SHP:1,2014-03-02T00:00:00Z,30.0600,-84.2910,-0.434,1111122 
COMPS,ioos:station:USF.COMPS:SHP:1,2014-03-02T00:06:00Z,30.0600,-84.2910,-0.453,1111122 
COMPS,ioos:station:USF.COMPS:SHP:1,2014-03-02T00:12:00Z,30.0600,-84.2910,-0.472,1111122 
COMPS,ioos:station:USF.COMPS:SHP:1,2014-03-02T00:18:00Z,30.0600,-84.2910,-0.492,1111122 
COMPS,ioos:station:USF.COMPS:SHP:1,2014-03-02T00:24:00Z,30.0600,-84.2910,-0.51,1111122 
COMPS,ioos:station:USF.COMPS:SHP:1,2014-03-02T00:30:00Z,30.0600,-84.2910,-0.526,1111122 
COMPS,ioos:station:USF.COMPS:SHP:1,2014-03-02T00:36:00Z,30.0600,-84.2910,-0.541,1111122 
COMPS,ioos:station:USF.COMPS:SHP:1,2014-03-02T00:42:00Z,30.0600,-84.2910,-0.557,1111122 
COMPS,ioos:station:USF.COMPS:SHP:1,2014-03-02T00:48:00Z,30.0600,-84.2910,-0.571,1111122 
COMPS,ioos:station:USF.COMPS:SHP:1,2014-03-02T00:54:00Z,30.0600,-84.2910,-0.583,1111122 
COMPS,ioos:station:USF.COMPS:SHP:1,2014-03-02T01:00:00Z,30.0600,-84.2910,-0.593,1111122 
COMPS,ioos:station:USF.COMPS:SHP:1,2014-03-02T01:06:00Z,30.0600,-84.2910,-0.604,1111122 
COMPS,ioos:station:USF.COMPS:SHP:1,2014-03-02T01:12:00Z,30.0600,-84.2910,-0.614,1111122 
COMPS,ioos:station:USF.COMPS:SHP:1,2014-03-02T01:18:00Z,30.0600,-84.2910,-0.623,1111122 
COMPS,ioos:station:USF.COMPS:SHP:1,2014-03-02T01:24:00Z,30.0600,-84.2910,-0.628,1111122 
COMPS,ioos:station:USF.COMPS:SHP:1,2014-03-02T01:30:00Z,30.0600,-84.2910,-0.632,1111122 
COMPS,ioos:station:USF.COMPS:SHP:1,2014-03-02T01:36:00Z,30.0600,-84.2910,-0.636,1111122 
COMPS,ioos:station:USF.COMPS:SHP:1,2014-03-02T01:42:00Z,30.0600,-84.2910,-0.639,1111122 
COMPS,ioos:station:USF.COMPS:SHP:1,2014-03-02T01:48:00Z,30.0600,-84.2910,-0.641,1111122 
COMPS,ioos:station:USF.COMPS:SHP:1,2014-03-02T01:54:00Z,30.0600,-84.2910,-0.641,1111122 
COMPS,ioos:station:USF.COMPS:SHP:1,2014-03-02T02:00:00Z,30.0600,-84.2910,-0.642,1111122 
COMPS,ioos:station:USF.COMPS:SHP:1,2014-03-02T02:06:00Z,30.0600,-84.2910,-0.638,1111122 
COMPS,ioos:station:USF.COMPS:SHP:1,2014-03-02T02:12:00Z,30.0600,-84.2910,-0.63,1111122 
COMPS,ioos:station:USF.COMPS:SHP:1,2014-03-02T02:18:00Z,30.0600,-84.2910,-0.619,1111122 
COMPS,ioos:station:USF.COMPS:SHP:1,2014-03-02T02:24:00Z,30.0600,-84.2910,-0.61,1111122 
COMPS,ioos:station:USF.COMPS:SHP:1,2014-03-02T02:30:00Z,30.0600,-84.2910,-0.6,1111122 
COMPS,ioos:station:USF.COMPS:SHP:1,2014-03-02T02:36:00Z,30.0600,-84.2910,-0.59,1111122 
COMPS,ioos:station:USF.COMPS:SHP:1,2014-03-02T02:42:00Z,30.0600,-84.2910,-0.581,1111122 
COMPS,ioos:station:USF.COMPS:SHP:1,2014-03-02T02:48:00Z,30.0600,-84.2910,-0.571,1111122 
COMPS,ioos:station:USF.COMPS:SHP:1,2014-03-02T02:54:00Z,30.0600,-84.2910,-0.557,1111122 